TimeCDT,TemperatureF,Dew PointF,Humidity,Sea Level PressureIn,VisibilityMPH,Wind Direction,Wind SpeedMPH,Gust SpeedMPH,PrecipitationIn,Events,Conditions,WindDirDegrees,DateUTC
12:15 AM,54.7,47.8,78,29.74,10.0,SSE,8.1,-,N/A,,Mostly Cloudy,160,2013-04-30 05:15:00
12:35 AM,54.0,47.7,79,29.74,10.0,SE,5.8,-,N/A,,Scattered Clouds,140,2013-04-30 05:35:00
12:55 AM,52.7,47.3,82,29.74,10.0,SE,5.8,-,N/A,,Clear,140,2013-04-30 05:55:00
1:15 AM,52.0,46.8,82,29.73,10.0,SE,6.9,-,N/A,,Clear,140,2013-04-30 06:15:00
1:35 AM,51.4,46.4,83,29.73,10.0,SE,5.8,-,N/A,,Clear,140,2013-04-30 06:35:00
1:55 AM,51.8,46.8,83,29.72,10.0,SSE,6.9,-,N/A,,Clear,150,2013-04-30 06:55:00
2:35 AM,52.0,47.3,84,29.71,10.0,SSE,8.1,-,N/A,,Clear,150,2013-04-30 07:35:00
2:55 AM,51.4,47.3,86,29.71,10.0,SSE,8.1,-,N/A,,Scattered Clouds,150,2013-04-30 07:55:00
3:15 AM,52.2,47.7,85,29.70,10.0,SSE,6.9,-,N/A,,Mostly Cloudy,150,2013-04-30 08:15:00
3:35 AM,52.9,48.2,84,29.70,10.0,SSE,6.9,-,N/A,,Overcast,150,2013-04-30 08:35:00
3:55 AM,52.9,48.4,85,29.70,10.0,SSE,8.1,-,N/A,,Mostly Cloudy,150,2013-04-30 08:55:00
4:15 AM,52.2,48.0,86,29.70,10.0,SSE,9.2,-,N/A,,Mostly Cloudy,150,2013-04-30 09:15:00
4:35 AM,52.0,47.8,86,29.71,10.0,SSE,8.1,-,N/A,,Overcast,160,2013-04-30 09:35:00
4:55 AM,51.8,47.8,86,29.69,10.0,SE,10.4,-,N/A,,Mostly Cloudy,140,2013-04-30 09:55:00
5:15 AM,51.3,47.8,88,29.70,5.0,SSE,12.7,17.3,0.05,,Mostly Cloudy,160,2013-04-30 10:15:00
5:35 AM,49.3,48.0,95,29.71,5.0,SSE,8.1,17.3,0.18,,Overcast,150,2013-04-30 10:35:00
5:55 AM,49.3,47.7,94,29.71,7.0,SE,12.7,17.3,0.19,,Overcast,140,2013-04-30 10:55:00
6:15 AM,49.1,47.3,93,29.70,5.0,SE,12.7,18.4,N/A,,Overcast,130,2013-04-30 11:15:00
6:35 AM,48.7,47.3,95,29.70,5.0,SE,12.7,-,N/A,,Overcast,140,2013-04-30 11:35:00
6:55 AM,48.6,47.3,95,29.71,5.0,SE,10.4,-,N/A,,Overcast,140,2013-04-30 11:55:00
7:15 AM,48.7,47.3,95,29.71,5.0,ESE,8.1,-,N/A,,Overcast,120,2013-04-30 12:15:00
7:35 AM,48.9,47.1,93,29.71,5.0,SE,10.4,-,N/A,,Scattered Clouds,130,2013-04-30 12:35:00
7:55 AM,47.5,46.4,96,29.71,4.0,SE,10.4,-,N/A,,Mostly Cloudy,130,2013-04-30 12:55:00
8:15 AM,47.3,45.7,94,29.70,4.0,SE,10.4,-,N/A,,Overcast,130,2013-04-30 13:15:00
8:35 AM,47.7,46.0,94,29.69,5.0,SE,11.5,-,N/A,,Mostly Cloudy,130,2013-04-30 13:35:00
8:55 AM,49.1,46.4,90,29.69,7.0,SE,11.5,16.1,N/A,,Mostly Cloudy,130,2013-04-30 13:55:00
9:15 AM,49.3,46.4,90,29.68,7.0,SE,6.9,-,N/A,,Scattered Clouds,140,2013-04-30 14:15:00
9:35 AM,52.0,48.0,86,29.70,7.0,SSE,11.5,17.3,N/A,,Scattered Clouds,160,2013-04-30 14:35:00
9:55 AM,52.3,47.7,84,29.70,10.0,SSE,13.8,21.9,N/A,,Scattered Clouds,150,2013-04-30 14:55:00
10:15 AM,52.9,48.2,84,29.70,10.0,South,15.0,19.6,N/A,,Clear,170,2013-04-30 15:15:00
10:35 AM,53.2,48.4,84,29.71,10.0,South,11.5,19.6,N/A,,Scattered Clouds,170,2013-04-30 15:35:00
10:55 AM,53.2,49.1,86,29.71,7.0,SSE,12.7,21.9,N/A,,Clear,150,2013-04-30 15:55:00
11:15 AM,54.5,49.6,84,29.70,7.0,SSE,12.7,18.4,N/A,,Scattered Clouds,150,2013-04-30 16:15:00
11:35 AM,55.6,49.8,81,29.69,7.0,SSE,17.3,23.0,N/A,,Scattered Clouds,150,2013-04-30 16:35:00
11:55 AM,56.3,50.0,79,29.68,7.0,SE,16.1,21.9,N/A,,Scattered Clouds,140,2013-04-30 16:55:00
12:15 PM,57.4,50.7,78,29.68,7.0,SE,15.0,23.0,N/A,,Scattered Clouds,140,2013-04-30 17:15:00
12:35 PM,58.5,51.3,77,29.68,7.0,SE,13.8,23.0,N/A,,Clear,140,2013-04-30 17:35:00
12:55 PM,58.8,51.6,77,29.67,10.0,SE,10.4,19.6,N/A,,Clear,140,2013-04-30 17:55:00
1:15 PM,60.3,52.7,76,29.66,10.0,SSE,13.8,-,N/A,,Clear,160,2013-04-30 18:15:00
1:35 PM,62.6,53.8,73,29.66,10.0,SSE,13.8,17.3,N/A,,Clear,160,2013-04-30 18:35:00
1:55 PM,63.3,53.8,71,29.66,10.0,SSE,13.8,19.6,N/A,,Clear,160,2013-04-30 18:55:00
2:15 PM,64.0,53.8,69,29.67,10.0,South,12.7,24.2,N/A,,Clear,170,2013-04-30 19:15:00
2:35 PM,63.7,54.0,71,29.66,10.0,South,10.4,19.6,N/A,,Clear,170,2013-04-30 19:35:00
2:55 PM,64.8,54.1,68,29.67,10.0,SSE,12.7,16.1,N/A,,Clear,160,2013-04-30 19:55:00
3:15 PM,65.8,53.8,65,29.67,10.0,South,12.7,19.6,N/A,,Clear,170,2013-04-30 20:15:00
3:35 PM,65.3,53.6,66,29.67,10.0,South,13.8,20.7,N/A,,Clear,170,2013-04-30 20:35:00
3:55 PM,65.8,53.6,65,29.67,10.0,South,11.5,20.7,N/A,,Clear,170,2013-04-30 20:55:00
4:15 PM,66.9,53.6,62,29.67,10.0,SSE,13.8,19.6,N/A,,Clear,160,2013-04-30 21:15:00
4:35 PM,68.0,53.8,60,29.67,10.0,South,9.2,19.6,N/A,,Clear,170,2013-04-30 21:35:00
4:55 PM,68.7,53.8,59,29.67,10.0,SSE,11.5,16.1,N/A,,Clear,160,2013-04-30 21:55:00
5:15 PM,68.5,53.8,59,29.68,10.0,South,12.7,17.3,N/A,,Clear,170,2013-04-30 22:15:00
5:35 PM,68.4,53.6,59,29.69,10.0,South,8.1,-,N/A,,Scattered Clouds,170,2013-04-30 22:35:00
5:55 PM,68.2,53.6,60,29.69,10.0,SSE,10.4,-,N/A,,Clear,160,2013-04-30 22:55:00
6:15 PM,68.4,53.6,59,29.70,10.0,South,8.1,-,N/A,,Clear,170,2013-04-30 23:15:00
6:35 PM,69.4,53.4,57,29.70,10.0,South,9.2,-,N/A,,Clear,180,2013-04-30 23:35:00
6:55 PM,68.4,52.7,57,29.71,10.0,South,9.2,-,N/A,,Scattered Clouds,170,2013-04-30 23:55:00
7:15 PM,67.8,52.9,59,29.72,10.0,SSE,9.2,-,N/A,,Mostly Cloudy,160,2013-05-01 00:15:00
7:35 PM,66.4,52.7,61,29.73,10.0,South,9.2,-,N/A,,Mostly Cloudy,170,2013-05-01 00:35:00
8:15 PM,64.2,51.8,64,29.76,10.0,SSE,6.9,-,N/A,,Mostly Cloudy,160,2013-05-01 01:15:00
8:35 PM,63.3,51.4,65,29.76,10.0,SSE,6.9,-,N/A,,Mostly Cloudy,160,2013-05-01 01:35:00
9:15 PM,62.6,50.9,66,29.78,10.0,South,5.8,-,N/A,,Clear,170,2013-05-01 02:15:00
9:35 PM,62.1,50.9,67,29.78,10.0,SSE,6.9,-,N/A,,Clear,160,2013-05-01 02:35:00
10:15 PM,61.7,50.9,68,29.78,10.0,South,5.8,-,N/A,,Clear,170,2013-05-01 03:15:00
10:35 PM,63.7,51.1,64,29.79,10.0,South,5.8,-,N/A,,Clear,180,2013-05-01 03:35:00
10:55 PM,64.6,51.4,62,29.79,10.0,South,8.1,-,N/A,,Clear,170,2013-05-01 03:55:00
11:15 PM,64.6,51.8,63,29.79,10.0,South,5.8,-,N/A,,Clear,170,2013-05-01 04:15:00
11:35 PM,66.4,51.4,59,29.80,10.0,SSE,4.6,-,N/A,,Clear,160,2013-05-01 04:35:00
11:55 PM,67.5,51.4,56,29.82,10.0,SW,5.8,-,N/A,,Mostly Cloudy,220,2013-05-01 04:55:00